Location: The Jewett Observatory
(46.7288°N, 117.1525°W)
Time: 04:29:35
(UTC-08:00)

Cosmos 1633 - Visible Passes

Search period start: 24 February 2017 00:00
Search period end: 06 March 2017 00:00
Orbit: 473 x 490 km, 82.5° (Epoch: 23 February)

Date Brightness Start Highest point End Pass type
(mag) Time Alt. Az. Time Alt. Az. Time Alt. Az.
24 Feb 5.7 04:41:45 10° NNE 04:44:13 17° ENE 04:46:40 10° ESE visible
24 Feb 2.6 18:27:25 10° S 18:31:03 58° E 18:34:42 10° NNE visible
24 Feb 6.1 20:05:09 10° W 20:06:27 12° WNW 20:07:46 10° NW visible
25 Feb 6.1 04:17:12 10° NE 04:18:21 11° ENE 04:19:30 10° E visible
25 Feb 2.6 05:50:10 10° NNW 05:53:46 58° W 05:57:18 10° S visible
25 Feb 3.2 18:02:05 10° SSE 18:05:27 35° E 18:08:50 10° NNE visible
25 Feb 5.6 19:38:03 10° WSW 19:40:35 17° WNW 19:43:08 10° NNW visible
26 Feb 2.6 05:24:27 10° N 05:28:06 83° E 05:31:43 10° S visible
26 Feb 4.9 19:11:37 10° SW 19:14:46 26° WNW 19:17:56 10° NNW visible
27 Feb 3.5 04:58:50 10° N 05:02:23 49° ENE 05:05:54 10° SSE visible
27 Feb 4.0 18:45:29 10° SSW 18:48:59 42° WNW 18:52:31 10° N visible
28 Feb 4.6 04:33:22 10° N 04:36:38 30° ENE 04:39:51 10° SE visible
28 Feb 2.9 18:19:35 10° SSW 18:23:16 70° WNW 18:26:57 10° N visible
01 Mar 5.3 04:08:06 10° NNE 04:10:48 19° ENE 04:13:30 10° ESE visible
01 Mar 3.4 05:42:40 10° NNW 05:45:52 29° W 05:49:00 10° SSW visible
02 Mar 5.9 03:43:12 10° NE 03:44:56 13° ENE 03:46:39 10° E visible
02 Mar 2.7 05:16:44 10° NNW 05:20:15 48° W 05:23:43 10° S visible
02 Mar 5.8 19:04:57 10° WSW 19:07:09 15° WNW 19:09:23 10° NNW visible
03 Mar 2.4 04:50:57 10° N 04:54:35 82° W 04:58:11 10° S visible
03 Mar 5.3 18:38:20 10° SW 18:41:18 23° WNW 18:44:17 10° NNW visible
04 Mar 3.1 04:25:17 10° N 04:28:53 58° E 04:32:25 10° SSE visible
04 Mar 4.5 18:12:05 10° SW 18:15:29 35° WNW 18:18:55 10° N visible
05 Mar 4.2 03:59:45 10° N 04:03:07 35° ENE 04:06:26 10° SE visible
05 Mar 4.1 05:35:33 10° NW 05:37:49 16° W 05:40:04 10° SW visible
